TIME,DELAY(SENSOR),PRES,T(CTD),SAL,OXYGEN,RAWTEMP,T(OPTODE),TCPHASE,FLUOR,BETA(BETA700),BETA(BETA412),BETA(BETA440),CDOM,C(CSC),ED(ED412.40),ED(ED444.00),ED(ED489.70),ED(ED554.30),LU(LU411.80),LU(LU443.40),LU(LU489.60),LU(LU554.10),COMP,TILTX,TILTX(TILTY),CHECK
1382131849,5806,496.8900146484375000,6.7802000045776370,34.1306991577148440,76.6296234130859400,594.6329956054688000,6.7575039863586430,49.2313690185546900,52,102,89,79,78,15248,2147747291,2147423945,2148008512,2147875867,2147627382,2147075053,2148247963,2147199213,1567,4,13,62522
1382131961,5810,485.4899902343750000,6.9168000221252440,34.1180992126464840,85.2814331054687500,590.2354125976562000,6.8992500305175780,48.1546592712402340,52,103,87,78,76,15249,2147747739,2147423387,2148009106,2147874569,2147628699,2147077851,2148246253,2147201618,1286,4,13,20114
1382132071,5809,474.6600036621094000,7.1159000396728520,34.1100006103515600,93.6656265258789000,584.2888793945312000,7.0906300544738770,47.1261215209960940,51,104,86,79,76,15246,2147745060,2147424521,2148004626,2147874386,2147626806,2147075099,2148245211,2147195090,267,4,12,40480
1382132181,5807,464.1799926757812500,7.3523998260498050,34.1041984558105500,103.7897033691406200,576.7783813476562000,7.3318901062011720,45.9328117370605500,52,103,85,80,76,15248,2147746240,2147421357,2148006555,2147872374,2147626733,2147072402,2148243154,2147201929,3045,4,13,20636
1382132304,5806,452.6700134277344000,7.5507001876831055,34.0997009277343750,111.6106033325195300,570.4954833984375000,7.5333290100097660,45.0399589538574200,50,104,84,78,74,15248,2147743396,2147426267,2148001947,2147873536,2147623625,2147081545,2148242614,2147203419,2067,4,12,39132
1382132414,5809,442.7300109863281000,7.7856998443603520,34.0988006591796900,120.6722030639648400,563.1491088867188000,7.7684249877929690,44.0386810302734400,51,103,87,80,75,15248,2147745810,2147425883,2148008036,2147872758,2147627190,2147080274,2148237952,2147202953,834,4,13,10203
1382132548,5809,430.7900085449219000,8.0806999206542970,34.1015014648437500,127.9290008544921900,553.9600219726562000,8.0618381500244140,43.2091217041015600,51,103,88,79,73,15247,2147742354,2147425609,2148005577,2147874861,2147622930,2147081682,2148240310,2147202843,3292,3,13,48153
1382132669,5806,420.5000000000000000,8.3392000198364260,34.1035995483398440,134.5095062255859400,545.9143066406250000,8.3181648254394530,42.4802017211914060,51,103,86,80,74,15248,2147739977,2147429046,2148005220,2147870875,2147619968,2147075620,2148233965,2147200822,1606,4,12,14304
1382132801,5803,409.1900024414062500,8.4825000762939450,34.1020011901855500,143.3439941406250000,541.3236083984375000,8.4641819000244140,41.6403007507324200,50,105,87,79,72,15249,2147737856,2147426870,2148002715,2147873051,2147622921,2147085787,2148230546,2147204123,777,4,13,9960
1382132924,5805,398.7999877929687500,8.6635999679565430,34.1067008972168000,147.6053924560547000,535.4547729492188000,8.6506042480468750,41.1831703186035160,50,104,87,79,74,15244,2147738889,2147425636,2148004498,2147871881,2147621668,2147084196,2148235958,2147202532,150,4,13,60318
1382133067,5810,387.2799987792969000,8.8920001983642580,34.1082992553710940,153.3179016113281200,528.5001831054688000,8.8711681365966800,40.6000785827636700,50,104,85,80,72,15245,2147738889,2147425993,2148004178,2147875026,2147619803,2147089801,2148233627,2147203776,552,3,13,64495
1382133201,5812,376.9899902343750000,9.0158004760742190,34.1100997924804700,158.0350036621093800,523.3681030273438000,9.0336933135986330,40.1405601501464840,50,106,89,78,73,15246,2147737197,2147424713,2148006326,2147873106,2147618560,2147089837,2148230125,2147202505,3114,4,13,29508
1382133344,5810,365.6199951171875000,9.5457000732421880,34.1139984130859400,169.6647949218750000,507.3247070312500000,9.5404891967773440,38.9873809814453100,50,108,86,79,71,15247,2147738194,2147425572,2148004288,2147874413,2147616073,2147089216,2148227611,2147200557,3436,3,13,59854
1382133509,5809,351.4899902343750000,10.0986003875732420,34.1269989013671900,176.0798034667968800,489.6933898925781000,10.0953302383422850,38.2272796630859400,50,105,87,79,71,15242,2147734884,2147424822,2148006180,2147873618,2147611748,2147093120,2148222829,2147199753,1886,3,13,37267
1382133617,5807,340.1600036621094000,10.4476995468139650,34.1356010437011700,179.0059967041015600,477.5614929199219000,10.4758901596069340,37.8193092346191400,49,106,85,80,71,15246,2147735972,2147424630,2148006016,2147872740,2147613028,2147101184,2148224310,2147201179,903,3,13,64725
1382133727,5811,328.4899902343750000,11.0920000076293950,34.1523017883300800,188.7035064697265600,458.3402099609375000,11.0769300460815430,36.8455390930175800,49,103,87,79,68,15245,2147733851,2147428608,2148009280,2147873645,2147613312,2147100571,2148219556,2147207826,2820,3,13,19625
1382133856,5810,317.5499877929687500,11.4377002716064450,34.1655006408691400,194.2091979980468800,447.3418884277344000,11.4198598861694340,36.3106193542480500,48,104,86,81,68,15244,2147732342,2147425874,2148013001,2147874048,2147604717,2147106185,2148222153,2147206208,1967,3,13,64537
1382134035,5806,307.7799987792969000,11.9482002258300780,34.1890983581543000,200.3948059082031200,431.4623107910156000,11.9137897491455080,35.6684799194335940,48,106,86,80,68,15247,2147725321,2147427264,2148013120,2147873408,2147601956,2147106678,2148220644,2147205467,2029,3,13,36444
1382134226,5811,295.9100036621094000,12.4476003646850590,34.2178001403808600,204.1943969726562500,414.6435852050781000,12.4355096817016600,35.1710586547851560,49,106,87,79,68,15245,2147726582,2147431469,2148017883,2147871808,2147598646,2147112347,2148218066,2147205312,1369,4,14,51151
1382134380,5810,285.0000000000000000,13.1751003265380860,34.2577018737793000,205.3477935791015600,391.3348999023437500,13.1563396453857420,34.7375602722168000,48,106,85,79,67,15243,2147724041,2147431689,2148022080,2147871442,2147600603,2147117750,2148214070,2147207341,3352,4,14,6016
1382134532,5808,272.2500000000000000,13.5375003814697270,34.2958984375000000,210.1744995117187500,378.8371887207031000,13.5418901443481450,34.2642211914062500,48,103,88,80,67,15240,2147722651,2147434614,2148039661,2147873490,2147594148,2147134098,2148225645,2147207405,3488,3,14,39438
1382134642,5805,261.6099853515625000,14.4429998397827150,34.3675994873046900,211.8278961181640600,349.1340942382812500,14.4559001922607420,33.7198982238769500,49,106,88,80,65,15239,2147720457,2147443968,2148059958,2147873846,2147590317,2147139483,2148229659,2147205805,608,3,14,6436
1382134776,5805,250.0700073242187500,15.3527002334594730,34.4720993041992200,213.9920959472656200,320.2564086914062500,15.3418998718261720,33.1711997985839840,49,106,84,80,65,15236,2147720722,2147462198,2148095579,2147875739,2147587474,2147153234,2148237778,2147210998,3118,3,13,44534
1382134908,5808,239.4400024414062500,16.1270008087158200,34.5619010925293000,215.3919982910156200,293.5468139648437500,16.1596298217773440,32.7059097290039060,49,111,84,79,65,15234,2147721362,2147482048,2148149851,2147874157,2147581842,2147176228,2148257152,2147214189,1672,3,14,59312
1382135053,5807,228.0599975585937500,16.6191997528076170,34.6214981079101560,216.5453033447265600,277.8327941894531000,16.6401405334472660,32.4184494018554700,48,103,82,80,64,15234,2147724032,2147513910,2148210413,2147872192,2147585947,2147189586,2148292260,2147218605,395,3,14,52941
1382135185,5809,217.3999938964843800,17.2063999176025400,34.6929016113281250,217.5541992187500000,259.5917053222656000,17.1975593566894530,32.1059188842773440,50,104,84,80,65,15231,2147723657,2147514733,2148193344,2147871680,2147579501,2147202916,2148274870,2147217828,3481,3,14,15449
1382135328,5809,206.5299987792968800,17.7021999359130860,34.7672996520996100,219.0704040527343800,243.5157012939453000,17.6885890960693360,31.8006706237792970,50,103,86,79,63,15230,2147730770,2147561664,2148275245,2147871652,2147579977,2147227748,2148320969,2147220260,2596,2,14,62577
1382135462,5807,198.5800018310547000,18.3381996154785160,34.8506011962890600,218.7156982421875000,223.7207946777343800,18.2930908203125000,31.5458106994628900,52,105,87,79,63,15224,2147752438,2147651803,2148462016,2147873225,2147589814,2147289133,2148407734,2147227126,1387,2,15,19228
1382135550,5808,194.6900024414062500,18.5471992492675780,34.8843994140625000,218.3323059082031200,216.0411987304687500,18.5276203155517580,31.4603691101074220,53,108,88,80,64,15220,2147776896,2147742354,2148640996,2147873746,2147597814,2147340132,2148492781,2147236004,1860,2,15,49316
1382135649,5804,191.0000000000000000,19.1361999511718750,34.9581985473632800,218.5776977539062500,198.2763061523437500,19.0702400207519530,31.2052192687988280,55,107,88,79,63,15218,2147772854,2147718226,2148576045,2147872137,2147595008,2147334336,2148463414,2147232064,2063,2,15,53949
1382135783,5808,187.3099975585937500,19.5013999938964840,35.0080986022949200,218.3896942138672000,186.3777008056640600,19.4338092803955080,31.0542697906494140,59,109,87,81,62,15215,2147803602,2147823478,2148782610,2147873508,2147605430,2147399451,2148562002,2147242614,3039,2,15,31396
1382135926,5809,182.9600067138672000,19.6002006530761720,35.0279006958007800,218.8619995117187500,181.2183990478515600,19.5914993286132800,30.9601192474365230,62,108,88,80,63,15208,2147807296,2147808438,2148731803,2147873654,2147606482,2147400557,2148532361,2147238372,2926,2,15,37144
1382136039,5803,178.2500000000000000,19.7726001739501950,35.0505981445312500,219.0919036865234400,175.4705963134765600,19.7672195434570300,30.8706092834472660,61,109,88,80,61,15206,2147841901,2147902482,2148896448,2147875218,2147622985,2147454473,2148606939,2147244004,1644,2,15,18990
1382136116,5807,174.1600036621093800,19.9920997619628900,35.0800018310546900,219.2023925781250000,168.3462066650390600,19.9850902557373050,30.7695903778076170,67,112,85,80,60,15204,2147893019,2148045129,2149156470,2147877412,2147641426,2147538093,2148730066,2147253193,687,2,15,16105
1382136193,5808,170.1900024414062500,20.3318996429443360,35.1296005249023440,219.1623992919922000,157.5099945068359400,20.3166198730468750,30.6273307800292970,72,112,86,80,61,15200,2147879853,2147963437,2148965494,2147874934,2147634752,2147486665,2148639771,2147246080,3356,2,15,64153
1382136270,5812,166.6900024414062500,20.5272006988525400,35.1673011779785160,220.7718963623047000,150.9199066162109400,20.5183506011962900,30.4574394226074220,75,122,89,80,62,15197,2147928192,2148088155,2149184960,2147876873,2147658550,2147560182,2148732379,2147251830,2499,2,15,52140
1382136360,5811,163.0299987792968800,20.8437995910644530,35.2028007507324200,221.0482025146484400,142.1089935302734400,20.7881908416748050,30.3270492553710940,84,116,87,81,61,15194,2147937819,2148076809,2149116278,2147875547,2147657920,2147550217,2148696923,2147249636,2255,2,15,18956
1382136470,5809,159.1100006103515600,21.0757007598876950,35.2369995117187500,223.4389953613281200,133.2801971435547000,21.0587692260742200,30.0901908874511720,82,113,89,82,61,15186,2148025654,2148273517,2149455323,2147881398,2147696969,2147677357,2148858258,2147261604,951,2,15,46664
1382136591,5807,154.8200073242187500,21.1354999542236330,35.2344017028808600,224.6031951904297000,131.0242004394531200,21.1279296875000000,30.0026397705078120,87,117,87,81,61,15184,2148225142,2148735350,2150257206,2147881270,2147779282,2147936539,2149235053,2147292598,3070,2,15,9273
1382136687,5807,150.4400024414062500,21.2611999511718750,35.2467994689941400,225.4537048339843800,126.8943023681640600,21.2545890808105470,29.9066600799560550,85,115,88,80,60,15175,2148486509,2149303277,2151222893,2147888786,2147891456,2148243620,2149660900,2147324242,2374,2,15,23702
1382136764,5803,146.1499938964843800,21.3770999908447270,35.2615013122558600,225.8491058349609400,122.9893035888671900,21.3743896484375000,29.8361091613769530,93,118,86,81,60,15172,2148710555,2149732013,2151896932,2147894299,2147984658,2148462427,2149934747,2147347785,1469,2,15,22114
1382136841,5808,142.2899932861328000,21.5301990509033200,35.2751998901367200,227.3054046630859400,118.3062973022461000,21.5181102752685550,29.7038307189941400,97,119,87,82,62,15163,2148995428,2150243584,2152697197,2147903606,2148100452,2148713398,2150268864,2147375488,560,2,15,40821
1382136918,5809,138.8800048828125000,21.6697006225585940,35.2863006591796900,227.8403015136718800,113.2577972412109400,21.6731204986572270,29.6125392913818360,106,120,88,83,60,15153,2149267593,2150688393,2153331099,2147911296,2148205668,2148925001,2150520018,2147398381,175,2,15,26165
1382137019,5808,135.1000061035156200,21.9150009155273440,35.2952003479003900,229.1358947753906200,105.8367996215820300,21.9011096954345700,29.4541606903076170,120,123,90,81,61,15133,2149648704,2151284288,2154114148,2147917449,2148339858,2149133357,2150757403,2147418925,2865,1,15,16502
1382137162,5806,131.0700073242187500,22.1504993438720700,35.2952995300293000,231.0574951171875000,98.5203628540039000,22.1260700225830080,29.2681198120117200,127,120,87,82,61,15134,2149855698,2151451766,2154076388,2147922002,2148395812,2149123035,2150652032,2147417014,1213,2,16,56697
1382137313,5811,126.9000015258789000,22.2985000610351560,35.3097991943359400,233.6203002929687500,93.3310470581054700,22.2857303619384770,29.0805892944335940,125,117,87,83,60,15135,2150282267,2152000128,2154656128,2147932818,2148539949,2149305462,2150840731,2147438473,1841,2,15,13658
1382137412,5808,122.8300018310546900,22.3169994354248050,35.3130989074707000,235.1441040039062500,92.5685577392578100,22.3091907501220700,28.9992904663085940,124,118,87,83,61,15126,2151606244,2154062774,2157356059,2147963785,2148998610,2150090889,2151739209,2147524324,2203,2,15,34085
1382137522,5810,118.7699966430664000,22.4883995056152340,35.3126983642578100,234.7268066406250000,84.5135879516601600,22.5572299957275400,28.9166603088378900,126,120,87,82,61,15121,2151281417,2153005293,2155265042,2147945152,2148889609,2149649846,2151029723,2147467547,2787,1,15,19733
1382137629,5812,114.8199996948242200,22.6739997863769530,35.3217010498046900,237.4275970458984400,80.8001785278320300,22.6716594696044920,28.7444896697998050,114,120,89,83,60,15130,2155405961,2159364525,2163419053,2148045394,2150448685,2152354413,2154135360,2147745792,1436,2,16,5092
1382137717,5808,110.2699966430664000,22.8479003906250000,35.3306007385253900,239.2808990478515600,76.4919586181640600,22.8044891357421880,28.6054496765136720,106,120,90,83,59,15121,2159194368,2164529453,2169224521,2148144329,2151973833,2154657353,2156494619,2147968310,1257,2,16,34510
1382137794,5808,106.0800018310546900,23.1961994171142580,35.3344001770019500,241.3822937011718800,65.4134902954101600,23.1463794708251950,28.3716392517089840,102,119,88,82,58,15120,2162381302,2168544475,2173202486,2148232411,2153390281,2156604233,2158314313,2148148955,1716,2,15,50393
1382137871,5805,103.1100006103515600,23.4265003204345700,35.3470993041992200,241.4282989501953000,57.1477584838867200,23.4018096923828120,28.2664909362792970,95,121,89,83,59,15116,2159838875,2163903725,2166515776,2148146651,2152600795,2154914870,2156083017,2147950025,1930,2,15,51243
1382138104,5808,99.9300003051757800,23.8953990936279300,35.3462982177734400,244.2864990234375000,42.1251602172851560,23.8668193817138670,27.9529800415039060,87,124,89,84,58,15112,2168066084,2174752658,2178315547,2148375835,2156319341,2160303725,2161314825,2148431442,2633,2,16,64258
1382138299,5809,98.2699966430664000,24.0918998718261720,35.3484992980957000,245.0812072753906200,35.7673683166503900,24.0639400482177730,27.8395500183105470,81,124,90,87,59,15106,2162589686,2166283821,2167678701,2148197485,2154235254,2156628598,2157015478,2148037001,3039,3,16,1964
1382138387,5807,96.3600006103515600,24.3180999755859380,35.3474998474121100,246.3674011230468800,29.6027507781982420,24.2552604675292970,27.7076396942138670,79,123,91,84,57,15108,2164146541,2168021120,2169155913,2148242157,2155195977,2157793536,2157873654,2148114176,1296,1,16,33195
1382138497,5807,94.6500015258789000,24.6035995483398440,35.3308982849121100,246.6096954345703000,19.8674106597900400,24.5578098297119140,27.5774993896484380,75,124,88,85,58,14994,2172337792,2178283318,2180058697,2148471049,2159286162,2163551835,2163255140,2148607808,519,1,16,18498
1382138615,5809,92.1399993896484400,24.6795005798339840,35.3286018371582000,246.6056976318359400,16.3540401458740230,24.6671199798584000,27.5346298217773440,71,123,94,84,57,15112,2164724141,2167636772,2167769124,2148246098,2156079908,2158412589,2157831296,2148115245,1350,1,16,6616
1382138681,5811,90.1800003051757800,24.7471008300781250,35.3263015747070300,246.9315948486328000,14.0329303741455080,24.7393703460693360,27.4920997619628900,73,123,89,83,55,15107,2180446774,2187589741,2188948361,2148784365,2164326500,2169791442,2168200539,2149067419,2117,1,16,51020
1382138758,5808,88.0999984741211000,24.7821998596191400,35.3291015625000000,247.3244018554687500,12.7243204116821290,24.7801208496093750,27.4592208862304700,70,123,93,86,57,15105,2178490441,2184081517,2184444214,2148730075,2163764608,2168458742,2166477494,2148913069,2202,1,16,2760
1382138835,5808,86.1500015258789000,24.8169994354248050,35.3298988342285160,247.4667053222656200,11.4887800216674800,24.8185997009277340,27.4380397796630860,70,123,93,85,59,15100,2183639186,2189784603,2189748809,2148906240,2166969334,2172369133,2169629248,2149204882,2174,1,16,59932
1382138920,5807,83.1399993896484400,24.9025993347167970,35.3372993469238300,247.5522003173828000,8.6859674453735350,24.9059295654296880,27.4000892639160160,68,126,90,83,56,15100,2181977755,2186083739,2184815469,2148873856,2166761956,2171098678,2167650541,2149038729,2137,1,16,53655
1382138975,5818,80.4899978637695300,24.9685001373291000,35.3418998718261700,247.8029937744140600,6.6956071853637695,24.9679698944091800,27.3650798797607420,68,124,88,85,57,15104,2198862317,2205295780,2203642386,2149581001,2176946523,2183715446,2177956123,2150015698,1810,1,17,54810
1382139030,5805,78.0000000000000000,25.1268005371093750,35.3454017639160160,247.6157073974609400,0.4635125100612640,25.1623706817626950,27.2971305847167970,67,122,91,85,59,15101,2207103808,2213689490,2211495158,2150052068,2182414134,2189912009,2182680758,2150482797,2229,0,16,47055
1382139085,5807,75.9400024414062500,25.5869007110595700,35.3334007263183600,246.3820037841797000,-11.5625400543212890,25.5381698608398440,27.2034606933593750,66,124,94,84,56,15100,2214105088,2220563172,2217749476,2150410998,2187007369,2194915620,2186168722,2150816768,1212,0,16,56036
1382139151,5809,74.5999984741211000,25.6860008239746100,35.3376998901367200,246.2290954589843800,-15.5662698745727540,25.6634693145751950,27.1613502502441400,63,123,93,85,58,15098,2188984475,2190608896,2187486070,2149305334,2172585408,2176189686,2170355035,2149333595,23,2,16,19283
1382139268,5809,72.0400009155273400,26.0643005371093750,35.3493003845214840,245.0312042236328000,-27.4882698059082030,26.0372104644775400,27.0681400299072270,62,123,94,85,57,15100,2210358445,2212566811,2207419913,2150285522,2186953252,2192055067,2182034998,2150481060,2826,1,17,33881
1382139334,5807,70.1699981689453100,26.2019004821777340,35.3507003784179700,244.4515075683593800,-31.7263698577880860,26.1702899932861330,27.0417003631591800,65,125,92,84,56,15098,2208966025,2211028836,2206420260,2150450084,2187109449,2192086025,2181945700,2150492470,461,1,16,3839
1382139422,5809,68.4300003051757800,26.2661991119384770,35.3507995605468750,243.7691040039062500,-34.4697685241699200,26.2565002441406250,27.0378093719482420,62,124,90,84,55,15096,2204095369,2205040402,2200313700,2150265600,2184505764,2188230939,2178444260,2150173851,206,1,16,14316
1382139540,5807,65.5400009155273400,26.4484004974365230,35.3544998168945300,242.6432952880859400,-40.6977386474609400,26.4524002075195300,27.0110702514648440,62,123,91,84,57,15075,2233247012,2235348553,2229555565,2152319561,2205890267,2212014372,2196493065,2152014162,3479,0,16,60255
1382139595,5808,63.3300018310546900,26.5900993347167970,35.3582992553710940,241.9210968017578000,-44.7907714843750000,26.5813007354736330,26.9928092956542970,60,123,93,85,56,15099,2189173741,2186574838,2181039204,2149534829,2177121755,2177231881,2168608237,2149257993,2748,0,17,61498
1382139650,5806,61.1399993896484400,26.8094005584716800,35.3628005981445300,241.0756988525390600,-50.4809684753418000,26.7606792449951170,26.9606895446777340,62,123,88,85,58,15089,2210732836,2208115922,2200470738,2150940864,2194490578,2195398976,2181425280,2150586724,2003,2,16,43925
1382139705,5808,59.3199996948242200,27.0403003692626950,35.3731002807617200,239.9974060058593800,-56.1809997558593750,26.9406108856201170,26.9386005401611330,62,123,94,86,55,15089,2249528804,2249998582,2241663670,2154156937,2222020214,2226701915,2205709924,2153156425,2689,1,16,61802
1382139760,5808,57.9300003051757800,27.0876998901367200,35.3790016174316400,239.2792053222656200,-59.8869400024414060,27.0577201843261720,26.9252605438232420,61,126,90,85,53,15089,2255269257,2254758217,2246136310,2154888000,2225315940,2229296859,2207303405,2153485476,3373,1,16,39485
1382139845,5809,55.6399993896484400,27.1716003417968750,35.3867988586425800,237.8218994140625000,-63.5152816772460940,27.1724796295166000,26.9454097747802730,61,124,90,85,57,15084,2230138569,2226998957,2218787657,2153243373,2210560027,2211323693,2192897353,2151988013,163,1,16,53630
1382139900,5805,53.3800010681152340,27.3763999938964840,35.4003982543945300,235.7949066162109400,-71.1653518676757800,27.4147701263427730,26.9424095153808600,60,121,90,84,54,15081,2243496320,2240007780,2230942244,2154935222,2223143442,2223737993,2201447533,2153012827,359,0,16,22855
1382139955,5810,51.5499992370605500,27.7278995513916000,35.4071006774902340,233.5227966308593800,-78.3996963500976600,27.6443004608154300,26.9561195373535160,59,119,90,84,58,15086,2245343286,2241383451,2232124836,2155498166,2225808969,2225224566,2201946102,2153194852,71,1,16,36847
1382140010,5804,50.2700004577636700,27.8439998626709000,35.3926010131835940,232.3032073974609400,-82.5498809814453100,27.7761707305908200,26.9606494903564450,59,119,88,85,53,15085,2257340022,2253565677,2243710857,2156917467,2237798336,2237215616,2210324297,2154181878,194,1,16,46704
1382140193,5815,48.5200004577636700,27.9312000274658200,35.2980003356933600,226.3654022216797000,-87.3581008911132800,27.9291095733642580,27.1740894317626950,57,118,91,84,54,15085,2254117522,2250534884,2239970432,2157164992,2239516141,2236718948,2208529682,2154137792,1761,1,16,59309
1382140314,5808,46.1599998474121100,27.9314002990722660,35.2761993408203100,224.4839019775390600,-87.5756530761718800,27.9360408782959000,27.2592697143554700,56,115,86,83,54,15098,2258451611,2255509522,2245426450,2158820909,2246152137,2241861869,2211475849,2154661714,2007,1,17,17192
1382140380,5807,44.0900001525878900,27.9298992156982420,35.2668991088867200,223.9324035644531200,-87.5337371826171900,27.9347000122070300,27.2856807708740230,57,116,88,82,53,15098,2284950930,2282867017,2272162404,2163791561,2274471040,2269708525,2230883675,2157353490,1988,0,16,51062
1382140465,5822,40.3499984741210940,27.9309005737304700,35.2517013549804700,223.1887054443359400,-87.4425811767578100,27.9318008422851560,27.3217792510986330,57,116,89,82,54,15089,2293346130,2291559716,2281762413,2168580982,2287749796,2280349677,2237306724,2158761929,1780,1,16,45426
1382140520,5806,37.1300010681152340,27.9227008819580080,35.2453994750976560,222.7270050048828000,-87.1501770019531200,27.9224891662597660,27.3472499847412100,55,114,90,82,55,15103,2304526445,2302956644,2293813906,2173639817,2302800676,2292395776,2244286363,2160374080,1575,1,16,58232
1382140575,5807,34.0900001525878900,27.9158992767334000,35.2392005920410160,222.5917053222656200,-87.0675811767578100,27.9198703765869140,27.3546104431152340,54,115,93,82,50,15102,2334142674,2333103853,2325326317,2185060635,2347360704,2334126811,2272765412,2165241444,1275,0,16,841